This is the latest recevied weather packets stored in our database for station/object KI4HRG. If no packets are shown the sender has not sent any weather packets the latest 10 day(s).
| Time | Temp. | Humidity | Pressure | Rain* | Wind** | Luminosity | Snow |
|---|---|---|---|---|---|---|---|
| 1787401524 | 23.33° C | 99% | 1016.4 hPa | 0 mm | - | 87 W/m² | - |
| 1787401219 | 22.78° C | 99% | 1016.2 hPa | 0 mm | - | 69 W/m² | - |
| 1787400915 | 22.78° C | 99% | 1016.1 hPa | 0 mm | - | 57 W/m² | - |
| 1787400615 | 22.78° C | 99% | 1016.2 hPa | 0 mm | - | 60 W/m² | - |
| 1787400310 | 22.22° C | 99% | 1016 hPa | 0 mm | - | 43 W/m² | - |
| 1787400009 | 22.22° C | 99% | 1016.1 hPa | 0 mm | - | 33 W/m² | - |
| 1787399707 | 22.22° C | 99% | 1016 hPa | 0 mm | - | 26 W/m² | - |
| 1787399403 | 22.22° C | 99% | 1016.1 hPa | 0 mm | - | 21 W/m² | - |
| 1787399102 | 22.22° C | 99% | 1016.1 hPa | 0 mm | - | 19 W/m² | - |
| 1787398797 | 22.22° C | 99% | 1016 hPa | 0 mm | - | 16 W/m² | - |
| 1787398493 | 22.22° C | 99% | 1016 hPa | 0 mm | - | 11 W/m² | - |
| 1787398189 | 22.22° C | 99% | 1015.9 hPa | 0 mm | - | 8 W/m² | - |
| 1787397884 | 22.22° C | 99% | 1015.8 hPa | 0 mm | - | 3 W/m² | - |
| 1787397579 | 22.22° C | 99% | 1015.6 hPa | 0 mm | - | 1 W/m² | - |
| 1787397274 | 22.22° C | 99% | 1015.6 hPa | 0 mm | - | 0 W/m² | - |
| 1787396973 | 22.22° C | 99% | 1015.4 hPa | 0 mm | - | 0 W/m² | - |
| 1787396670 | 22.22° C | 99% | 1015.5 hPa | 0 mm | - | 0 W/m² | - |
| 1787396365 | 22.22° C | 99% | 1015.3 hPa | 0 mm | - | 0 W/m² | - |
| 1787396060 | 22.22° C | 99% | 1015.3 hPa | 0 mm | - | 0 W/m² | - |
| 1787395755 | 22.22° C | 99% | 1015 hPa | 0 mm | - | 0 W/m² | - |
| 1787395455 | 22.22° C | 99% | 1015 hPa | 0 mm | - | 0 W/m² | - |
| 1787395154 | 22.22° C | 99% | 1014.9 hPa | 0 mm | - | 0 W/m² | - |
| 1787394849 | 22.22° C | 99% | 1014.8 hPa | 0 mm | - | 0 W/m² | - |
| 1787394545 | 22.22° C | 99% | 1015 hPa | 0 mm | - | 0 W/m² | - |
| 1787394241 | 22.22° C | 99% | 1014.8 hPa | 0 mm | - | 0 W/m² | - |
* Rain latest hour (hover to see other rain measurements)
** Current wind speed in m/s (hover to see current wind gust speed)